Regional Weather Roundup
Issued by NWS

Home | Current Version | Previous Version | Text Only | Print | Product List | Glossary On
Versions: 1 2 3 4 5 6 7 8 9 10 11 12 13 14 15 16 17 18 19 20 21 22 23 24 25 26 27 28 29 30 31 32 33 34 35 36 37 38 39 40 41 42 43 44 45 46 47 48 49 50
000
ASCA42 TJSJ 281710
RWRPR
PUERTO RICO/U.S. VIRGIN ISLANDS HOURLY WEATHER ROUNDUP
NATIONAL WEATHER SERVICE SAN JUAN PR
100 PM AST SAT FEB 28 2015

PRZ001-004-281800-
PUERTO RICO

CITY           SKY/WX    TMP DP  RH WIND       PRES   REMARKS
SAN JUAN LMM   MOSUNNY   84  72  65 E18       30.11F
MAYAGUEZ       PTSUNNY   84  72  65 E10       30.12F
AGUADILLA      MOSUNNY   82  70  65 E21G26    30.13F
CEIBA          CLOUDY    82  72  69 NE14      30.13F
$$

PRZ006-007-281800-
U.S. VIRGIN ISLANDS

CITY           SKY/WX    TMP DP  RH WIND       PRES   REMARKS
CHRISTIANSTED  PTSUNNY   79  73  83 NE12      30.10
$$

HOURLY WEATHER ROUNDUP FOR THE NEWS MEDIA

CITY           SKY/WX    TMP DP  RH WIND       PRES   REMARKS
ORLANDO        CLOUDY    67  64  90 NE7       30.35F
NEW YORK       PTSUNNY   25  -1  32 NW3       30.83S
NEWARK         MOSUNNY   24   2  38 W5        30.83S WCI  18
CHICAGO        SUNNY     14   0  53 SE5       30.69F WCI   6
HARTFORD       SUNNY     25  -1  32 W3        30.74S
BOSTON         SUNNY     25   1  35 NW5       30.74F WCI  19
DALLAS         FRZ DRZL  30  27  86 E6        30.40S WCI  24
PHILADELPHIA   MOSUNNY   25  -2  31 NW5       30.85F WCI  19
LOS ANGELES    PTSUNNY   57  44  62 W10       29.85R
WASHINGTON DC  PTSUNNY   24  -5  27 CALM      30.83F


USA.gov is the U.S. government's official web portal to all federal, state and local government web resources and services.